Regional Weather Roundup
Issued by NWS

Home | Current Version | Previous Version | Text Only | Print | Product List | Glossary On
Versions: 1 2 3 4 5 6 7 8 9 10 11 12 13 14 15 16 17 18 19 20 21 22 23 24 25 26 27 28 29 30 31 32 33 34 35 36 37 38 39 40 41 42 43 44 45 46 47 48 49 50
000
ASUS44 KEWX 260610
RWRTX
SOUTH TEXAS REGIONAL WEATHER ROUNDUP
NATIONAL WEATHER SERVICE AUSTIN/SAN ANTONIO TX
100 AM CDT SAT JUL 26 2014

NOTE: "FAIR" INDICATED FEW OR NO CLOUDS BELOW 12,000 FEET WITH NO
SIGNIFICANT WEATHER AND/OR OBSTRUCTIONS TO VISIBILITY.

* - THESE STATIONS ARE NOT NWS OR FAA STATIONS...AND ARE NOT SUBJECT
    TO NWS AND FAA QUALITY CONTROL.

TXZ171-172-183>190-260700-
TEXAS HILL COUNTRY AND EDWARDS PLATEAU

CITY           SKY/WX    TMP DP  RH WIND       PRES   REMARKS
JUNCTION       CLEAR     80  65  59 SW3       30.03R
6HR MIN TEMP:  80; 6HR MAX TEMP:  94;

*LLANO         CLEAR     79  66  65 CALM      30.04R
BURNET         CLEAR     82  69  64 S6        30.04R
6HR MIN TEMP:  82; 6HR MAX TEMP:  94;

*HORSESHOE BAY CLEAR     83  68  61 S8G16     30.01S
6HR MIN TEMP:  83; 6HR MAX TEMP:  94;

*KERRVILLE     CLEAR     78  71  79 SE9       30.05S
6HR MIN TEMP:  78; 6HR MAX TEMP:  92;

*FREDERICKSBRG CLEAR     78  67  68 S7        30.04S
6HR MIN TEMP:  78; 6HR MAX TEMP:  92;

*ROCKSPRINGS   CLEAR     77  66  69 SE12      30.08S
*BOERNE STAGE  CLEAR     79  64  61 S7        30.05S
*CASTROVILLE   CLEAR     80  67  65 SE3       30.02S
HONDO          CLEAR     79  68  69 SE10      30.03R
6HR MIN TEMP:  79; 6HR MAX TEMP:  93; 6HR PCP: TRACE;

*UVALDE        PTCLDY    81  71  72 E6        30.00S
6HR MIN TEMP:  81; 6HR MAX TEMP:  96;

DEL RIO        CLEAR     85  66  53 SE7       29.97R
6HR MIN TEMP:  85; 6HR MAX TEMP: 100;

LAUGHLIN AFB   CLEAR     83  67  59 SE13      29.98R
6HR MIN TEMP:  83; 6HR MAX TEMP:  98;

CARRIZO SPRGS  PTCLDY    81  72  74 SE9G16    29.95S
$$

TXZ173-191>194-202-209-217>225-228-260700-
CENTRAL AND SOUTH CENTRAL TEXAS

CITY           SKY/WX    TMP DP  RH WIND       PRES   REMARKS
GEORGETOWN     CLEAR     82  72  69 S7        30.01S
6HR MIN TEMP:  82; 6HR MAX TEMP:  93;

AUSTIN/BERGSTM CLEAR     81  71  71 S9        30.00R
6HR MIN TEMP:  81; 6HR MAX TEMP:  96;

AUSTIN/MABRY   CLEAR     82  71  69 S6        30.01S
6HR MIN TEMP:  82; 6HR MAX TEMP:  93;

*AUSTIN/EXEC   PTCLDY    79  72  78 CALM      30.01S
*LAGO VISTA    CLEAR     82  69  65 S8        30.03S
6HR MIN TEMP:  82; 6HR MAX TEMP:  93;

SAN MARCOS     CLEAR     81  70  69 S9        30.03R
6HR MIN TEMP:  81; 6HR MAX TEMP:  97;

NEW BRAUNFELS  CLEAR     80  72  76 S9        30.00S
6HR MIN TEMP:  79; 6HR MAX TEMP:  96;

RANDOLPH AFB   CLEAR     80  70  71 S7        30.02R
6HR MIN TEMP:  80; 6HR MAX TEMP:  95;

PT SAN ANTONIO CLEAR     80  71  72 SE10      30.00S
6HR MIN TEMP:  80; 6HR MAX TEMP:  94;

SAN ANTONIO    PTCLDY    82  70  66 SE13      30.02R
6HR MIN TEMP:  81; 6HR MAX TEMP:  94;

STINSON FIELD  CLEAR     80  71  74 SE7       29.99S
6HR MIN TEMP:  80; 6HR MAX TEMP:  95;

*PLEASANTON    CLEAR     80  71  72 SE7       29.99S
6HR MIN TEMP:  80; 6HR MAX TEMP:  91;

*LA GRANGE     CLEAR     80  76  88 S5        29.99S
6HR MIN TEMP:  80; 6HR MAX TEMP:  94;

*GIDDINGS      CLEAR     80  72  78 S6        30.05S
6HR MIN TEMP:  80; 6HR MAX TEMP:  92;

*GONZALES      CLEAR     81  75  83 S8        30.00S
6HR MIN TEMP:  81; 6HR MAX TEMP:  93;

$$

TXZ163>164-176>182-195>201-210>213-226-227-235-260700-
SOUTHEAST TEXAS

CITY           SKY/WX    TMP DP  RH WIND       PRES   REMARKS
COLLEGE STN    CLEAR     80  72  76 S7        30.01R
6HR MIN TEMP:  80; 6HR MAX TEMP:  92;

*BRYAN         CLEAR     79  73  80 S8        30.00S
*CALDWELL      CLEAR     79  73  83 S7        30.03S
*CROCKETT      CLEAR     81  77  89 S3        30.03S
*BRENHAM       CLEAR     80  73  81 S5        30.01F
6HR MIN TEMP:  80; 6HR MAX TEMP:  91;

HUNTSVILLE     CLEAR     81  73  76 S9        30.01R
6HR MIN TEMP:  80; 6HR MAX TEMP:  92;

CONROE         CLEAR     79  74  84 S5        30.02S
6HR MIN TEMP:  79; 6HR MAX TEMP:  89;

HOUSTON BUSH   PTCLDY    81  75  82 SW3       30.01S
6HR MIN TEMP:  81; 6HR MAX TEMP:  90;

HOUSTON HOBBY  PTCLDY    80  75  84 S5        30.00S
6HR MIN TEMP:  79; 6HR MAX TEMP:  87;

*HOUSTON SW AP CLEAR     75  75 100 CALM      30.02S
6HR MIN TEMP:  75; 6HR MAX TEMP:  84;

PEARLAND       CLEAR     80  75  84 S3        30.02S
6HR MIN TEMP:  80; 6HR MAX TEMP:  86;

HOUSTON HOOKS  CLEAR     81  77  88 S7        30.01S
6HR MIN TEMP:  81; 6HR MAX TEMP:  92;

ELLINGTON FLD  PTCLDY    81  75  83 CALM      30.02S
SUGAR LAND     CLEAR     80  76  87 S7        30.01S
6HR MIN TEMP:  80; 6HR MAX TEMP:  88; 6HR PCP:  0.01;

*HOUSTON EXEC  CLEAR     77  77 100 S6        30.02S
*CLEVELAND MUN CLEAR     77  75  95 CALM      30.02S
6HR MIN TEMP:  77; 6HR MAX TEMP:  89;

*WHARTON       CLEAR     77  75  93 S6        30.01F
6HR MIN TEMP:  77; 6HR MAX TEMP:  89;

$$

TXZ214>216-236>238-260700-
THE UPPER TEXAS COAST

CITY           SKY/WX    TMP DP  RH WIND       PRES   REMARKS
*ORANGE        CLEAR     79  79 100 CALM      30.03S
6HR MIN TEMP:  78; 6HR MAX TEMP:  88;

PORT ARTHUR    CLEAR     79  75  87 S5        30.01S
6HR MIN TEMP:  79; 6HR MAX TEMP:  87;

GALVESTON      PTCLDY    84  76  76 S15G21    30.02S HX  93
6HR MIN TEMP:  84; 6HR MAX TEMP:  87;

ANGLETON       PTCLDY    77  75  93 S3        30.01S
6HR MIN TEMP:  76; 6HR MAX TEMP:  87;

*BAY CITY      CLEAR     80  80 100 S6        30.01S
PALACIOS       PTCLDY    84  76  76 MISG      30.00F HX  93
6HR MIN TEMP:  83; 6HR MAX TEMP:  88;

$$

TXZ229>234-239>247-260700-
TEXAS COASTAL BEND AND RIO GRANDE PLAINS

CITY           SKY/WX    TMP DP  RH WIND       PRES   REMARKS
VICTORIA       CLEAR     80  77  90 S8        30.00F
6HR MIN TEMP:  80; 6HR MAX TEMP:  91;

*BEEVILLE      CLEAR     81  77  88 S14       30.00S
6HR MIN TEMP:  81; 6HR MAX TEMP:  91;

ROCKPORT       MOCLDY    83  78  85 S12G18    29.99S HX  93
6HR MIN TEMP:  83; 6HR MAX TEMP:  87;

*PORT ARANSAS  CLEAR     82  78  87 S13       29.99S HX  90
6HR MIN TEMP:  82; 6HR MAX TEMP:  85;

*PORT LAVACA   CLEAR     78  76  92 S6        30.00F
6HR MIN TEMP:  77; 6HR MAX TEMP:  87;

*INGLESIDE     CLEAR     84  76  78 S10G16    29.99S HX  93
CORPUS CHRISTI PTCLDY    80  76  87 S13       29.99F
6HR MIN TEMP:  80; 6HR MAX TEMP:  86;

CORPUS NAS     CLEAR     83  78  85 S16       29.99S HX  93
6HR MIN TEMP:  83; 6HR MAX TEMP:  87;

*ROBSTOWN      NOT AVBL
ALICE          CLEAR     80  76  87 S7        29.98S
6HR MIN TEMP:  80; 6HR MAX TEMP:  86;

KINGSVILLE NAS CLEAR     81  77  88 SE12      29.99S
6HR MIN TEMP:  81; 6HR MAX TEMP:  88;

COTULLA        CLEAR     81  73  76 SE12      29.97S
6HR MIN TEMP:  81; 6HR MAX TEMP:  85;

*FAITH RANCH   CLEAR     81  72  74 SE12      29.97R
LAREDO         CLEAR     85  65  51 SE10      29.99R
6HR MIN TEMP:  85; 6HR MAX TEMP:  88;

$$

TXZ248>255-260700-
DEEP SOUTH TEXAS

CITY           SKY/WX    TMP DP  RH WIND       PRES   REMARKS
BROWNSVILLE    CLEAR     81  76  84 SE10      30.01S
6HR MIN TEMP:  81; 6HR MAX TEMP:  88;

PORT ISABEL    CLEAR     83  76  79 S13       30.00S HX  91
6HR MIN TEMP:  83; 6HR MAX TEMP:  90;

*SOUTH PADRE     N/A     81  77  89 S12       30.01F
HARLINGEN      CLEAR     81  75  82 S13       29.98F
6HR MIN TEMP:  81; 6HR MAX TEMP:  91;

*HEBBRONVILLE  CLEAR     81  67  63 SE9       30.01S


USA.gov is the U.S. government's official web portal to all federal, state and local government web resources and services.